[[{"header":{"parameterUnit":"m.s-1","parameterCategory":1,"la1":30.2992,"la2":30.254,"lo1":-89.0895,"lo2":-89.0443,"dy":0.0025,"dx":0.0025,"nx":19,"ny":19,"refTime":"2026-05-09T09:00:00:Z","depth":0,"parameterNumber":2,"parameterNumberName":"U-component_of_WINDS"},"data":[0,0,0,1.3903,1.3905,1.3999,1.3999,1.4118,1.4119,0,0,0,0,0,0,0,0,0,0,0,1.3875,1.3876,1.3902,1.3905,1.3999,1.3999,1.4117,1.4119,0,0,0,0,0,0,0,0,0,0,0,1.3875,1.3876,1.3877,1.3905,1.3998,1.3999,1.4117,1.4046,0,0,0,0,0,0,0,0,0,0,1.3955,1.3931,1.3876,1.3877,1.3906,1.3998,1.3999,1.4043,1.4051,1.4075,0,1.4098,0,1.411,1.4127,1.4127,0,0,0,1.3904,1.3925,1.395,1.3877,1.3907,1.3998,1.3956,1.4047,1.4056,1.4085,1.4099,1.4104,1.4112,1.4127,1.4128,1.4269,1.427,0,0,1.3899,1.3893,1.3944,1.3955,1.3942,1.3953,1.3959,1.4053,1.4067,1.41,1.4106,1.4114,1.4128,1.4129,1.4269,1.4269,0,0,0,1.3884,1.3889,1.3911,1.3951,1.3968,1.3956,1.3963,1.4063,1.4071,1.4108,1.4115,1.4129,1.413,1.4268,1.4269,1.4296,0,0,0,1.3881,1.388,1.3909,1.3906,1.3966,1.4017,1.3971,1.4064,1.4075,1.4115,1.4129,1.4131,1.4267,1.4268,1.4293,1.4309,0,0,0,1.3869,1.3879,1.3893,1.3906,1.3946,1.4016,1.4029,1.4067,1.408,1.4127,1.4132,1.4267,1.4268,1.4291,1.4306,1.4343,0,0,0,1.3854,1.3917,1.3893,1.3966,1.3945,1.4032,1.4028,1.4094,1.4137,1.4129,1.4267,1.4269,1.4291,1.4304,1.434,1.4372,1.4385,0,0,1.3929,1.3926,1.3969,1.395,1.404,1.4018,1.4111,1.4157,1.4168,1.4234,1.4238,1.4294,1.4306,1.4342,1.4462,1.4472,0,0,0,1.399,1.4021,1.4046,1.4087,1.4124,1.4156,1.4188,1.4205,1.4262,1.4201,1.4319,1.4326,1.4347,1.4362,1.4371,1.4389,1.4276,1.4276,1.4276,1.4088,1.4097,1.4168,1.4188,1.4228,1.426,1.4292,1.4319,1.4318,1.4345,1.4365,1.4436,1.4454,1.4461,1.4479,1.4384,1.4384,1.4384,1.4384,1.4197,1.4241,1.4236,1.4304,1.4312,1.4368,1.44,1.4397,1.4449,1.4423,1.4443,1.4412,1.4471,1.4488,1.4386,1.4386,1.4385,1.4385,1.4385,1.4261,1.4283,1.4302,1.4361,1.4405,1.4423,1.4472,1.4479,1.4485,1.4505,1.4524,1.4524,1.4523,1.4514,1.4514,1.4515,1.4515,1.4515,1.4515,1.4318,1.4339,1.4381,1.4423,1.4449,1.4484,1.4515,1.454,1.4569,1.457,1.457,1.4564,1.4476,1.4453,1.4519,1.4518,1.4518,1.4517,1.4517,1.4424,1.44,1.4465,1.449,1.4539,1.4581,1.4588,1.4639,1.466,1.4684,1.4674,1.4608,1.4605,1.4598,1.4578,1.4673,1.4673,1.4673,1.4673,1.4476,1.4475,1.454,1.4581,1.4621,1.4633,1.4703,1.4726,1.4747,1.4761,1.4748,1.4723,1.4716,1.4717,1.4707,1.4689,1.481,1.481,1.481,1.454,1.4542,1.4601,1.4622,1.466,1.4692,1.4756,1.4801,1.482,1.4816,1.477,1.4765,1.4725,1.4712,1.4706,1.4691,1.4658,0,0]},{"header":{"parameterUnit":"m.s-1","parameterCategory":1,"la1":30.2992,"la2":30.254,"lo1":-89.0895,"lo2":-89.0443,"dy":0.0025,"dx":0.0025,"nx":19,"ny":19,"refTime":"2026-05-09T09:00:00:Z","depth":0,"parameterNumber":3,"parameterNumberName":"V-component_of_WINDS"},"data":[0,0,0,2.8965,2.8967,2.9067,2.9067,2.919,2.9191,0,0,0,0,0,0,0,0,0,0,0,2.8936,2.8937,2.8965,2.8967,2.9067,2.9067,2.919,2.9191,0,0,0,0,0,0,0,0,0,0,0,2.8936,2.8937,2.8938,2.8968,2.9066,2.9067,2.919,2.9115,0,0,0,0,0,0,0,0,0,0,2.9019,2.8995,2.8937,2.8938,2.8968,2.9066,2.9067,2.9112,2.912,2.9145,0,2.9169,0,2.9182,2.92,2.92,0,0,0,2.8966,2.8988,2.9014,2.8938,2.8969,2.9066,2.9021,2.9116,2.9126,2.9155,2.9171,2.9176,2.9184,2.92,2.9201,2.9353,2.9353,0,0,2.896,2.8954,2.9008,2.902,2.9008,2.9018,2.9024,2.9122,2.9138,2.9172,2.9179,2.9186,2.9201,2.9202,2.9352,2.9353,0,0,0,2.8946,2.895,2.8974,2.9015,2.9033,2.9021,2.9028,2.9133,2.9142,2.918,2.9188,2.9202,2.9203,2.9351,2.9352,2.9385,0,0,0,2.8942,2.8942,2.8972,2.8969,2.9032,2.9085,2.9037,2.9135,2.9146,2.9187,2.9202,2.9205,2.935,2.9352,2.9383,2.9402,0,0,0,2.893,2.894,2.8955,2.8968,2.9011,2.9084,2.9098,2.9138,2.9151,2.92,2.9205,2.935,2.9351,2.938,2.9398,2.944,0,0,0,2.8914,2.8983,2.8956,2.9035,2.9011,2.9104,2.9097,2.9167,2.9213,2.9203,2.935,2.9352,2.9379,2.9396,2.9437,2.9475,2.949,0,0,2.8997,2.8993,2.904,2.9019,2.9116,2.909,2.9191,2.9237,2.9246,2.9316,2.932,2.9383,2.9398,2.9439,2.9575,2.9587,0,0,0,2.9064,2.9098,2.9125,2.917,2.9208,2.9242,2.9274,2.9291,2.935,2.9282,2.941,2.9419,2.9443,2.9461,2.9471,2.9492,2.936,2.936,2.936,2.9174,2.9183,2.9261,2.9281,2.9324,2.9356,2.939,2.9418,2.9414,2.9443,2.9465,2.9546,2.9567,2.9575,2.9597,2.9484,2.9485,2.9485,2.9485,2.9297,2.9346,2.9338,2.9412,2.942,2.948,2.9512,2.9507,2.9562,2.9531,2.9553,2.9519,2.9588,2.9607,2.9487,2.9487,2.9487,2.9486,2.9486,2.937,2.9395,2.9415,2.9479,2.9527,2.9543,2.9598,2.9602,2.9606,2.9628,2.965,2.9649,2.9649,2.9638,2.9638,2.9638,2.9639,2.9639,2.9639,2.9439,2.946,2.9507,2.9552,2.958,2.9617,2.9648,2.9675,2.9705,2.9704,2.9704,2.9696,2.9593,2.9567,2.9644,2.9643,2.9642,2.9642,2.9641,2.9561,2.9534,2.9606,2.9634,2.9686,2.9732,2.9737,2.979,2.9813,2.9839,2.9825,2.9748,2.9743,2.9735,2.9714,2.9824,2.9824,2.9824,2.9824,2.9623,2.9621,2.9695,2.974,2.9783,2.9794,2.9872,2.9895,2.9914,2.9928,2.9912,2.9884,2.9875,2.9875,2.9864,2.9844,2.9985,2.9985,2.9985,2.9699,2.9701,2.9769,2.9789,2.9829,2.9863,2.9936,2.9984,3.0,2.9992,2.9938,2.9932,2.9886,2.9871,2.9863,2.9845,2.9809,0,0]}]]